Weather History for Brussels, Belgium

Change the Weather History Date:

Wednesday, January 16, 2013

  Actual Average Record
Temperature  
Mean Temperature 18 °F -  
Max Temperature 27 °F 42 °F 55 °F (2011)
Min Temperature 8 °F 34 °F 8 °F (2013)
Degree Days  
Heating Degree Days 48    
Moisture  
Dew Point 17 °F    
Average Humidity 83    
Maximum Humidity 100    
Minimum Humidity 64    
Precipitation  
Precipitation 0.00 in - - ()
Sea Level Pressure  
Sea Level Pressure 29.86 in    
Wind  
Wind Speed 3 mph ()    
Max Wind Speed 8 mph    
Max Gust Speed -    
Visibility 4.4 miles    
Events Fog , Snow    
Averages and records for this station are not official NWS values.
T = Trace of Precipitation, MM = Missing Value Source: Averaged Metar Reports

Daily Weather History Graph

Daily Weather History Graph

Search for Another Location

Airport:

Trip Planner

Search our weather history database for the weather conditions in past years. The results will help you decide how hot, cold, wet, or windy it might be!

Date:

Astronomy

Jan. 16, 2013 Rise Set
Actual Time 8:37 AM CET 5:06 PM CET
Civil Twilight 7:59 AM CET 5:44 PM CET
Nautical Twilight 7:18 AM CET 6:25 PM CET
Astronomical Twilight 6:39 AM CET 7:04 PM CET
Moon 10:26 AM CET (1/16) 11:25 PM CET (1/16)
Length of Visible Light 9h 44m
Length of Day
8h 29m
Waxing Crescent, 25% of the Moon is Illuminated
Jan 16
Waxing Crescent
Jan 19
First Quarter
Jan 27
Full
Feb 3
Last Quarter
Feb 10
New

Hourly Weather History & Observations

Time (CET) Temp. Windchill Dew Point Humidity Pressure Visibility Wind Dir Wind Speed Gust Speed Precip Events Conditions
12:20 AM 26.6 °F 18.2 °F 23.0 °F 86% 29.80 in 5.0 mi North 8.1 mph - N/A Snow Light Snow
12:50 AM 23.0 °F 17.0 °F 21.2 °F 93% 29.80 in 6.2 mi North 4.6 mph - N/A   Partly Cloudy
1:00 AM 23 °F - 21 °F 87% 29.83 in 6 mi North 4.5 mph - - Snow Light Snow
1:20 AM 23.0 °F 17.0 °F 19.4 °F 86% 29.80 in - NNW 4.6 mph - N/A   Clear
1:50 AM 21.2 °F 13.6 °F 19.4 °F 93% 29.80 in - NW 5.8 mph - N/A   Clear
2:20 AM 21.2 °F 14.9 °F 17.6 °F 86% 29.83 in 5.6 mi NNW 4.6 mph - N/A   Unknown
2:50 AM 21.2 °F - 17.6 °F 86% 29.83 in 5.6 mi NW 2.3 mph - N/A   Unknown
3:20 AM 21.2 °F 16.4 °F 17.6 °F 86% 29.80 in 5.6 mi NW 3.5 mph - N/A   Unknown
3:50 AM 21.2 °F 14.9 °F 17.6 °F 86% 29.80 in 5.6 mi NW 4.6 mph - N/A   Unknown
4:00 AM 21 °F - 17 °F 76% 29.84 in 6 mi NW 4.5 mph - -   Scattered Clouds
4:20 AM 19.4 °F - 15.8 °F 86% 29.80 in 5.0 mi NW 2.3 mph - N/A   Unknown
4:50 AM 19.4 °F - 15.8 °F 86% 29.80 in 5.0 mi NW 2.3 mph - N/A   Unknown
5:20 AM 19.4 °F - 15.8 °F 86% 29.80 in 5.0 mi West 2.3 mph - N/A   Unknown
5:50 AM 19.4 °F 14.3 °F 14.0 °F 80% 29.80 in 5.0 mi WNW 3.5 mph - N/A   Unknown
6:20 AM 12.2 °F - 8.6 °F 85% 29.80 in 5.0 mi Variable 2.3 mph - N/A   Unknown
6:50 AM 15.8 °F - 12.2 °F 86% 29.80 in 5.6 mi NW 2.3 mph - N/A   Unknown
7:00 AM 16 °F - 12 °F 79% 29.83 in 6 mi NW 2.2 mph - -  
7:20 AM 17.6 °F 10.7 °F 14.0 °F 86% 29.80 in - WNW 4.6 mph - N/A   Clear
7:50 AM 8.6 °F - 5.0 °F 85% 29.80 in - West 2.3 mph - N/A   Clear
8:20 AM 15.8 °F - 12.2 °F 86% 29.83 in - Variable 1.2 mph - N/A   Clear
8:50 AM 17.6 °F - 12.2 °F 79% 29.83 in - Variable 1.2 mph - N/A   Clear
9:20 AM 17.6 °F - 12.2 °F 79% 29.83 in - Variable 2.3 mph - N/A   Clear
9:50 AM 19.4 °F - 15.8 °F 86% 29.83 in - Variable 2.3 mph - N/A   Clear
10:00 AM 20 °F - 15 °F 74% 29.87 in 9 mi NW 2.2 mph - -  
10:20 AM 23.0 °F - 15.8 °F 74% 29.83 in - Variable 2.3 mph - N/A   Clear
10:50 AM 23.0 °F 18.4 °F 15.8 °F 74% 29.86 in - NNE 3.5 mph - N/A   Clear
11:20 AM 24.8 °F - 17.6 °F 74% 29.86 in - East 1.2 mph - N/A   Clear
11:50 AM 23.0 °F - 17.6 °F 80% 29.86 in - Variable 2.3 mph - N/A   Clear
12:20 PM 23.0 °F - 17.6 °F 80% 29.83 in - NNE 2.3 mph - N/A   Clear
12:50 PM 26.6 °F - 19.4 °F 74% 29.83 in - Calm Calm - N/A   Clear
1:00 PM 26 °F - 20 °F 68% 29.87 in 9 mi Calm Calm - -  
1:20 PM 24.8 °F - 17.6 °F 74% 29.83 in - NNE 2.3 mph - N/A   Clear
1:50 PM 24.8 °F - 17.6 °F 74% 29.83 in - NNE 2.3 mph - N/A   Clear
2:20 PM 24.8 °F - 15.8 °F 69% 29.83 in - NNE 2.3 mph - N/A   Clear
2:50 PM 24.8 °F - 17.6 °F 74% 29.86 in - North 2.3 mph - N/A   Clear
3:20 PM 24.8 °F 20.5 °F 17.6 °F 74% 29.86 in - NNE 3.5 mph - N/A   Clear
3:50 PM 24.8 °F 20.5 °F 15.8 °F 69% 29.86 in - ENE 3.5 mph - N/A   Clear
4:00 PM 24 °F - 17 °F 64% 29.89 in 9 mi ENE 4.5 mph - -  
4:20 PM 24.8 °F 20.5 °F 17.6 °F 74% 29.86 in - ENE 3.5 mph - N/A   Clear
4:50 PM 24.8 °F 20.5 °F 17.6 °F 74% 29.89 in - ENE 3.5 mph - N/A   Clear
5:20 PM 23.0 °F 18.4 °F 17.6 °F 80% 29.89 in - ENE 3.5 mph - N/A   Clear
5:50 PM 23.0 °F - 17.6 °F 80% 29.89 in 6.2 mi ENE 2.3 mph - N/A   Partly Cloudy
6:20 PM 21.2 °F - 17.6 °F 86% 29.92 in 5.0 mi ENE 1.2 mph - N/A   Partly Cloudy
6:50 PM 19.4 °F 14.3 °F 15.8 °F 86% 29.92 in 5.0 mi NE 3.5 mph - N/A   Partly Cloudy
7:00 PM 19 °F - 16 °F 84% 29.94 in 5 mi NE 4.5 mph - -   Scattered Clouds
7:20 PM 21.2 °F - 17.6 °F 86% 29.92 in 3.7 mi ENE 2.3 mph - N/A   Partly Cloudy
7:50 PM 19.4 °F - 17.6 °F 93% 29.92 in 3.1 mi ENE 2.3 mph - N/A   Partly Cloudy
8:20 PM 19.4 °F - 17.6 °F 93% 29.92 in 2.2 mi ENE 1.2 mph - N/A   Partly Cloudy
8:50 PM 15.8 °F 10.2 °F 15.8 °F 100% 29.95 in 1.6 mi NNE 3.5 mph - N/A   Scattered Clouds
9:20 PM 17.6 °F 12.3 °F 15.8 °F 93% 29.95 in 0.2 mi North 3.5 mph - N/A Fog Light Freezing Fog
9:50 PM 17.6 °F 10.7 °F 17.6 °F 100% 29.95 in 0.5 mi NNE 4.6 mph - N/A Fog Light Freezing Fog
10:00 PM 18 °F - 17 °F 94% 29.98 in 0 mi NNE 4.5 mph - - Fog Partial Fog
10:20 PM 19.4 °F - 17.6 °F 93% 29.95 in 0.5 mi Variable 2.3 mph - N/A Fog Light Freezing Fog
10:50 PM 19.4 °F - 17.6 °F 93% 29.95 in 0.4 mi NNE 1.2 mph - N/A Fog Light Freezing Fog
11:20 PM 19.4 °F - 19.4 °F 100% 29.98 in 0.7 mi North 1.2 mph - N/A Fog Patches of Fog
11:50 PM 19.4 °F - 17.6 °F 93% 29.98 in 0.4 mi Calm Calm - N/A Fog Light Freezing Fog